Voltar ao catálogo

FENGYUN 1C DEB

AtivoSSO
NORAD 31814·DEBRIS·🇨🇳 China

Lançado May 10, 1999 de Taiyuan Satellite Launch Center

Loading…

Próximas Passagens (próximas 24 horas)

TLE

AtualizadoSource: Space-Track

Época: Sep 13, 2026, 09:48 UTC

1 31814U 99025CHC 26256.40875427  .00000382  00000-0  42886-3 0  9994
2 31814  99.5412 307.9367 0228843 229.8977 128.1910 13.66731280655516

Acompanhe FENGYUN 1C DEB em tempo real com AllMySat

Download on the App Store